Tracking 19563 objects as of 20-Mar-2019
HD Live streaming from Space Station
objects crossing your sky now

FENGYUN 1C DEB

Track FENGYUN 1C DEB now!
10-day predictions


NORAD ID: 30434
Int'l Code: 1999-025AEV
Perigee: 849.6 km
Apogee: 1,032.3 km
Inclination: 99.1 °
Period: 103.7 minutes
Semi major axis: 7311 km
RCS: 0.018 m2 (small)
Launch date: May 10, 1999
Source: People's Republic of China (PRC)
Launch site: Taiyaun Space Center, China (TSC)

Note: This is SATELLITE DEBRIS
aabbcc
Your satellite tracking list
Your tracking list is empty




NASA's NSSDC Master Catalog

Two Line Element Set (TLE):
1 30434U 99025AEV 19078.59003705 +.00000066 +00000-0 +84343-4 0  9991
2 30434 099.0793 117.8137 0124941 070.4552 080.1379 13.88530427615499
Source of the keplerian elements: AFSPC